Regional Weather Roundup
Issued by NWS

Home | Current Version | Previous Version | Text Only | Print | Product List | Glossary On
Versions: 1 2 3 4 5 6 7 8 9 10 11 12 13 14 15 16 17 18 19 20 21 22 23 24 25 26 27 28 29 30 31 32 33 34 35 36 37 38 39 40 41 42 43 44 45 46 47 48 49 50
000
ASUS43 KDTX 160910
RWRMI
MICHIGAN HOURLY REGIONAL WEATHER ROUNDUP
NATIONAL WEATHER SERVICE DETROIT/PONTIAC MI
500 AM EDT WED APR 16 2014

NOTE: "FAIR" INDICATES FEW OR NO CLOUDS BELOW 12,000 FEET WITH NO
SIGNIFICANT WEATHER AND/OR OBSTRUCTION TO VISIBILITY.

MIZ047>049-052>055-059>063-066>070-074>076-081>083-161000-
SOUTHEAST LOWER MICHIGAN

CITY           SKY/WX    TMP DP  RH WIND       PRES   REMARKS
ADRIAN         CLEAR     21  15  78 CALM      30.31R
ALMA           CLEAR     25  19  80 CALM      30.30R
ANN ARBOR      CLEAR     18  15  88 CALM      30.30R
BAD AXE        CLEAR     23  17  79 CALM      30.28R
DETROIT CITY   CLEAR     24  14  65 CALM      30.32R
DETROIT        CLEAR     25  17  72 CALM      30.32R
FLINT          CLEAR     21  13  71 SW5       30.30R
GROSSE ILE     CLEAR     25  18  74 CALM      30.31R
HILLSDALE      CLEAR     19  15  86 S3        30.28R
HOWELL         CLEAR     19  13  78 CALM      30.28S

CITY           SKY/WX    TMP DP  RH WIND       PRES   REMARKS
JACKSON        CLEAR     19  13  77 CALM      30.29R
LAMBERTVILLE   CLEAR     25  19  80 CALM      30.33R
LANSING        CLEAR     22  14  71 CALM      30.30R
LAPEER         NOT AVBL
MASON          CLEAR     21  19  89 CALM      30.29R
MONROE         CLEAR     23  21  93 CALM      30.31R
MT. CLEMENS    CLEAR     21  16  81 SW2       30.30R
PONTIAC        CLEAR     21  15  78 SW3       30.28R
PORT HOPE        N/A     25  17  72 SW3       30.26R
PORT HURON     CLEAR     18  16  93 CALM      30.31R
TRI CITIES     CLEAR     24  15  68 W6        30.30R
YPSILANTI      CLEAR     24  15  68 CALM      30.31R
$$
MIZ043>046-050>051-056>058-064>065-071>073-077>080-161000-
SOUTHWEST LOWER MICHIGAN

CITY           SKY/WX    TMP DP  RH WIND       PRES   REMARKS
BATTLE CREEK   CLEAR     22  15  75 CALM      30.29R
BENTON HARBOR  CLEAR     24  16  71 SE7       30.29R
BIG RAPIDS     CLEAR     20  17  87 CALM      30.26R
COLDWATER      CLEAR     22  17  82 CALM      30.30R
HOLLAND        CLEAR     24  17  74 SE6       30.30R
GRAND RAPIDS   CLEAR     23  16  74 CALM      30.29R
KALAMAZOO      CLEAR     24  16  71 S3        30.30R
MARSHALL       CLEAR     19  15  86 CALM      30.29R
MUSKEGON       CLEAR     23  16  74 E5        30.29R
$$
MIZ016>042-161000-
NORTHERN LOWER MICHIGAN

CITY           SKY/WX    TMP DP  RH WIND       PRES   REMARKS
ALPENA         CLEAR     16  15  96 SW3       30.27R
BEAVER ISLAND  CLEAR     10   6  87 CALM      30.25S
BELLAIRE       CLEAR     22  20  93 CALM      30.26R
CADILLAC       CLEAR     19  15  86 S5        30.22R
CHARLEVOIX     CLEAR     15  13  93 CALM      30.28R
FRANKFORT      SUNNY     20  17  86 CALM      30.25R
GAYLORD        CLOUDY    19  17  92 CALM      30.22R
GRAYLING       PTCLDY    14  12  93 CALM      30.24R
HARBOR SPRINGS CLEAR     12   9  89 CALM      30.26R
HOUGHTON LAKE  CLEAR     19  16  88 S3        30.24R
MANISTEE       MOCLDY    27  18  69 S3        30.27R
OSCODA         CLEAR     20  14  77 CALM      30.27R
PELLSTON       FOG        2  -1  88 CALM      30.27R VSB 1
TRAVERSE CITY  CLEAR     18  15  88 CALM      30.25R
$$
MIZ007>008-015-161000-
EASTERN UPPER MICHIGAN

CITY           SKY/WX    TMP DP  RH WIND       PRES   REMARKS
KINROSS        CLEAR      5   3  92 CALM      30.24R
MACKINAC ISLAN CLEAR     13   9  85 CALM      30.25R
NEWBERRY       CLEAR      1  -1  89 SW5       30.22S
S. S. MARIE    CLEAR     12   6  77 CALM      30.24R
$$
MIZ004>006-011>014-085-161000-
CENTRAL UPPER MICHIGAN

CITY           SKY/WX    TMP DP  RH WIND       PRES   REMARKS
MANISTIQUE     CLEAR      6   2  86 CALM      30.23S
ESCANABA       CLEAR     10   9  92 CALM      30.22R
MENOMINEE      CLEAR     19  18  93 CALM      30.22R
SAWYER-GWINN   CLEAR     -1  -4  85 CALM      30.18S
$$
MIZ001>003-009>011-084-161000-
WESTERN UPPER MICHIGAN

CITY           SKY/WX    TMP DP  RH WIND       PRES   REMARKS
IRON MOUNTAIN  CLEAR     10   5  80 CALM      30.18R
HOUGHTON       CLEAR     14  -3  47 SW3       30.15R
COPPER HARBOR    N/A     17   4  56 SW5       30.18R
IRONWOOD       CLOUDY    21   9  58 SE7       30.11S
$$

ABBREVIATIONS USED IN REMARKS
   TC - TEMPERATURE IN CELSIUS
  WCI - WIND CHILL INDEX
   HX - HEAT INDEX
  VSB - VISIBILITY




USA.gov is the U.S. government's official web portal to all federal, state and local government web resources and services.